Location: Knowlton
(51.2333°N, 1.2667°E)
Time: 09:04:34
(UTC+00:00)

RESURS DK-1 - Pass Details

Date: 18 April 2021
Orbit: 553 x 563 km, 69.9° (Epoch: 16 May)

Event Time Altitude Azimuth Distance (km) Brightness Sun altitude
Rises 20:16:06 0° 203° (SSW) 2,726 5.7 -11.9°
Reaches altitude 10° 20:18:17 10° 201° (SSW) 1,837 4.8 -12.2°
Maximum altitude 20:22:21 69° 119° (ESE) 601 2.3 -12.7°
Drops below altitude 10° 20:26:29 10° 36° (NE) 1,857 5.0 -13.2°
Sets 20:28:43 0° 34° (NE) 2,759 6.0 -13.5°
